Location: Callanans Corners
(42.5326°N, 73.8846°W)
Time: 14:47:13
(UTC+00:00)

MOS 1-B - Pass Details

Date: 06 October 2022
Orbit: 904 x 913 km, 99.4° (Epoch: 28 November)

Event Time Altitude Azimuth Distance (km) Brightness Sun altitude
Rises 23:04:33 0° 150° (SSE) 3,531 7.1 -7.5°
Reaches altitude 10° 23:06:59 10° 145° (SE) 2,594 6.4 -8.0°
Maximum altitude 23:12:37 55° 70° (ENE) 1,090 4.5 -9.0°
Drops below altitude 10° 23:18:17 10° 354° (N) 2,613 6.9 -10.0°
Sets 23:20:44 0° 350° (N) 3,559 7.6 -10.5°
